Location: Newark
(38.6492°N, 88.9193°W)
Time: 08:42:24
(UTC+00:00)

LightSail 2 - Pass Details

Date: 16 November 2019
Orbit: 696 x 730 km, 24.0° (Epoch: 12 December)

Event Time Altitude Azimuth Distance (km) Brightness Sun altitude
Exits shadow 10:35:03 14° 196° (SSW) 1,956 7.3 -24.1°
Maximum altitude 10:35:44 14° 188° (S) 1,938 7.3 -24.0°
Drops below altitude 10° 10:38:24 10° 157° (SSE) 2,209 8.0 -23.5°
Sets 10:41:59 0° 132° (SE) 3,132 9.3 -22.8°
